Location: Hurstbourne Priors
(51.2000°N, 1.3667°W)
Time: 18:34:59
(UTC+00:00)

Transit 4A - Pass Details

Date: 26 April 2021
Orbit: 870 x 974 km, 66.8° (Epoch: 09 May)

Event Time Altitude Azimuth Distance (km) Brightness Sun altitude
Rises 22:25:16 0° 213° (SSW) 3,617 - -21.6°
Reaches altitude 10° 22:27:50 10° 212° (SSW) 2,662 - -21.7°
Exits shadow 22:29:52 22° 212° (SSW) 1,925 9.2 -21.9°
Maximum altitude 22:34:02 84° 127° (SE) 940 7.8 -22.1°
Drops below altitude 10° 22:40:07 10° 39° (NE) 2,604 10.6 -22.5°
Sets 22:42:36 0° 39° (NE) 3,533 11.3 -22.6°
